Year,Month,Day,Hour,Minute,Value (Times are PST for temperature in C)
2018,08,04,00,00,15.70
2018,08,04,00,01,15.70
2018,08,04,00,02,15.70
2018,08,04,00,03,15.70
2018,08,04,00,04,15.70
2018,08,04,00,05,15.60
2018,08,04,00,06,15.60
2018,08,04,00,07,15.60
2018,08,04,00,08,15.60
2018,08,04,00,09,15.60
2018,08,04,00,10,15.60
2018,08,04,00,11,15.60
2018,08,04,00,12,15.60
2018,08,04,00,13,15.60
2018,08,04,00,14,15.50
2018,08,04,00,15,15.50
2018,08,04,00,16,15.50
2018,08,04,00,17,15.50
2018,08,04,00,18,15.40
2018,08,04,00,19,15.40
2018,08,04,00,20,15.40
2018,08,04,00,21,15.40
2018,08,04,00,22,15.40
2018,08,04,00,23,15.40
2018,08,04,00,24,15.40
2018,08,04,00,25,15.40
2018,08,04,00,26,15.40
2018,08,04,00,27,15.30
2018,08,04,00,28,15.30
2018,08,04,00,29,15.30
2018,08,04,00,30,15.30
2018,08,04,00,31,15.30
2018,08,04,00,32,15.30
2018,08,04,00,33,15.30
2018,08,04,00,34,15.30
2018,08,04,00,35,15.30
2018,08,04,00,36,15.30
2018,08,04,00,37,15.30
2018,08,04,00,38,15.30
2018,08,04,00,39,15.30
2018,08,04,00,40,15.30
2018,08,04,00,41,15.30
2018,08,04,00,42,15.30
2018,08,04,00,43,15.30
2018,08,04,00,44,15.30
2018,08,04,00,45,15.30
2018,08,04,00,46,15.30
2018,08,04,00,47,15.30
2018,08,04,00,48,15.20
2018,08,04,00,49,15.20
2018,08,04,00,50,15.20
2018,08,04,00,51,15.20
2018,08,04,00,52,15.20
2018,08,04,00,53,15.20
2018,08,04,00,54,15.20
2018,08,04,00,55,15.10
2018,08,04,00,56,15.10
2018,08,04,00,57,15.10
2018,08,04,00,58,15.10
2018,08,04,00,59,15.10
2018,08,04,01,00,15.10
2018,08,04,01,01,15.10
2018,08,04,01,02,15.00
2018,08,04,01,03,15.00
2018,08,04,01,04,15.00
2018,08,04,01,05,15.00
2018,08,04,01,06,15.00
2018,08,04,01,07,15.00
2018,08,04,01,08,14.90
2018,08,04,01,09,14.90
2018,08,04,01,10,14.90
2018,08,04,01,11,14.90
2018,08,04,01,12,14.90
2018,08,04,01,13,14.90
2018,08,04,01,14,14.90
2018,08,04,01,15,14.90
2018,08,04,01,16,14.90
2018,08,04,01,17,14.90
2018,08,04,01,18,14.90
2018,08,04,01,19,14.80
2018,08,04,01,20,14.80
2018,08,04,01,21,14.80
2018,08,04,01,22,14.80
2018,08,04,01,23,14.80
2018,08,04,01,24,14.80
2018,08,04,01,25,14.90
2018,08,04,01,26,14.90
2018,08,04,01,27,14.90
2018,08,04,01,28,14.90
2018,08,04,01,29,14.90
2018,08,04,01,30,14.90
2018,08,04,01,31,14.90
2018,08,04,01,32,14.90
2018,08,04,01,33,14.90
2018,08,04,01,34,14.90
2018,08,04,01,35,14.90
2018,08,04,01,36,14.90
2018,08,04,01,37,14.90
2018,08,04,01,38,14.90
2018,08,04,01,39,14.90
2018,08,04,01,40,14.90
2018,08,04,01,41,14.90
2018,08,04,01,42,14.90
2018,08,04,01,43,14.90
2018,08,04,01,44,14.90
2018,08,04,01,45,14.90
2018,08,04,01,46,14.90
2018,08,04,01,47,14.80
2018,08,04,01,48,14.80
2018,08,04,01,49,14.80
2018,08,04,01,50,14.80
2018,08,04,01,51,14.80
2018,08,04,01,52,14.80
2018,08,04,01,53,14.80
2018,08,04,01,54,14.80
2018,08,04,01,55,14.80
2018,08,04,01,56,14.80
2018,08,04,01,57,14.80
2018,08,04,01,58,14.80
2018,08,04,01,59,14.80
2018,08,04,02,00,14.70
2018,08,04,02,01,14.80
2018,08,04,02,02,14.70
2018,08,04,02,03,14.70
2018,08,04,02,04,14.70
2018,08,04,02,05,14.70
2018,08,04,02,06,14.70
2018,08,04,02,07,14.70
2018,08,04,02,08,14.70
2018,08,04,02,09,14.60
2018,08,04,02,10,14.60
2018,08,04,02,11,14.60
2018,08,04,02,12,14.60
2018,08,04,02,13,14.60
2018,08,04,02,14,14.60
2018,08,04,02,15,14.60
2018,08,04,02,16,14.60
2018,08,04,02,17,14.50
2018,08,04,02,18,14.50
2018,08,04,02,19,14.50
2018,08,04,02,20,14.50
2018,08,04,02,21,14.40
2018,08,04,02,22,14.40
2018,08,04,02,23,14.40
2018,08,04,02,24,14.40
2018,08,04,02,25,14.40
2018,08,04,02,26,14.40
2018,08,04,02,27,14.40
2018,08,04,02,28,14.40
2018,08,04,02,29,14.30
2018,08,04,02,30,14.30
2018,08,04,02,31,14.30
2018,08,04,02,32,14.30
2018,08,04,02,33,14.30
2018,08,04,02,34,14.30
2018,08,04,02,35,14.30
2018,08,04,02,36,14.30
2018,08,04,02,37,14.30
2018,08,04,02,38,14.40
2018,08,04,02,39,14.40
2018,08,04,02,40,14.40
2018,08,04,02,41,14.40
2018,08,04,02,42,14.40
2018,08,04,02,43,14.40
2018,08,04,02,44,14.40
2018,08,04,02,45,14.40
2018,08,04,02,46,14.40
2018,08,04,02,47,14.40
2018,08,04,02,48,14.40
2018,08,04,02,49,14.40
2018,08,04,02,50,14.40
2018,08,04,02,51,14.40
2018,08,04,02,52,14.40
2018,08,04,02,53,14.40
2018,08,04,02,54,14.40
2018,08,04,02,55,14.40
2018,08,04,02,56,14.40
2018,08,04,02,57,14.40
2018,08,04,02,58,14.40
2018,08,04,02,59,14.40
2018,08,04,03,00,14.40
2018,08,04,03,01,14.40
2018,08,04,03,02,14.40
2018,08,04,03,03,14.40
2018,08,04,03,04,14.40
2018,08,04,03,05,14.40
2018,08,04,03,06,14.40
2018,08,04,03,07,14.40
2018,08,04,03,08,14.30
2018,08,04,03,09,14.40
2018,08,04,03,10,14.30
2018,08,04,03,11,14.30
2018,08,04,03,12,14.30
2018,08,04,03,13,14.30
2018,08,04,03,14,14.30
2018,08,04,03,15,14.30
2018,08,04,03,16,14.30
2018,08,04,03,17,14.30
2018,08,04,03,18,14.30
2018,08,04,03,19,14.20
2018,08,04,03,20,14.20
2018,08,04,03,21,14.20
2018,08,04,03,22,14.20
2018,08,04,03,23,14.20
2018,08,04,03,24,14.20
2018,08,04,03,25,14.20
2018,08,04,03,26,14.30
2018,08,04,03,27,14.30
2018,08,04,03,28,14.30
2018,08,04,03,29,14.30
2018,08,04,03,30,14.30
2018,08,04,03,31,14.40
2018,08,04,03,32,14.40
2018,08,04,03,33,14.40
2018,08,04,03,34,14.40
2018,08,04,03,35,14.40
2018,08,04,03,36,14.40
2018,08,04,03,37,14.40
2018,08,04,03,38,14.40
2018,08,04,03,39,14.40
2018,08,04,03,40,14.40
2018,08,04,03,41,14.40
2018,08,04,03,42,14.40
2018,08,04,03,43,14.40
2018,08,04,03,44,14.40
2018,08,04,03,45,14.40
2018,08,04,03,46,14.40
2018,08,04,03,47,14.40
2018,08,04,03,48,14.40
2018,08,04,03,49,14.40
2018,08,04,03,50,14.40
2018,08,04,03,51,14.40
2018,08,04,03,52,14.40
2018,08,04,03,53,14.40
2018,08,04,03,54,14.50
2018,08,04,03,55,14.50
2018,08,04,03,56,14.50
2018,08,04,03,57,14.50
2018,08,04,03,58,14.50
2018,08,04,03,59,14.50
2018,08,04,04,00,14.50
2018,08,04,04,01,14.50
2018,08,04,04,02,14.50
2018,08,04,04,03,14.50
2018,08,04,04,04,14.50
2018,08,04,04,05,14.40
2018,08,04,04,06,14.50
2018,08,04,04,07,14.40
2018,08,04,04,08,14.50
2018,08,04,04,09,14.50
2018,08,04,04,10,14.50
2018,08,04,04,11,14.40
2018,08,04,04,12,14.50
2018,08,04,04,13,14.50
2018,08,04,04,14,14.40
2018,08,04,04,15,14.40
2018,08,04,04,16,14.40
2018,08,04,04,17,14.40
2018,08,04,04,18,14.40
2018,08,04,04,19,14.40
2018,08,04,04,20,14.40
2018,08,04,04,21,14.40
2018,08,04,04,22,14.40
2018,08,04,04,23,14.40
2018,08,04,04,24,14.40
2018,08,04,04,25,14.40
2018,08,04,04,26,14.40
2018,08,04,04,27,14.40
2018,08,04,04,28,14.40
2018,08,04,04,29,14.40
2018,08,04,04,30,14.40
2018,08,04,04,31,14.40
2018,08,04,04,32,14.40
2018,08,04,04,33,14.40
2018,08,04,04,34,14.50
2018,08,04,04,35,14.50
2018,08,04,04,36,14.50
2018,08,04,04,37,14.40
2018,08,04,04,38,14.50
2018,08,04,04,39,14.50
2018,08,04,04,40,14.40
2018,08,04,04,41,14.40
2018,08,04,04,42,14.40
2018,08,04,04,43,14.40
2018,08,04,04,44,14.40
2018,08,04,04,45,14.40
2018,08,04,04,46,14.40
2018,08,04,04,47,14.40
2018,08,04,04,48,14.40
2018,08,04,04,49,14.40
2018,08,04,04,50,14.40
2018,08,04,04,51,14.40
2018,08,04,04,52,14.40
2018,08,04,04,53,14.40
2018,08,04,04,54,14.40
2018,08,04,04,55,14.40
2018,08,04,04,56,14.40
2018,08,04,04,57,14.40
2018,08,04,04,58,14.40
2018,08,04,04,59,14.40
2018,08,04,05,00,14.40
2018,08,04,05,01,14.40
2018,08,04,05,02,14.40
2018,08,04,05,03,14.40
2018,08,04,05,04,14.40
2018,08,04,05,05,14.40
2018,08,04,05,06,14.40
2018,08,04,05,07,14.40
2018,08,04,05,08,14.40
2018,08,04,05,09,14.40
2018,08,04,05,10,14.40
2018,08,04,05,11,14.40
2018,08,04,05,12,14.40
2018,08,04,05,13,14.40
2018,08,04,05,14,14.40
2018,08,04,05,15,14.40
2018,08,04,05,16,14.40
2018,08,04,05,17,14.40
2018,08,04,05,18,14.40
2018,08,04,05,19,14.40
2018,08,04,05,20,14.40
2018,08,04,05,21,14.40
2018,08,04,05,22,14.40
2018,08,04,05,23,14.40
2018,08,04,05,24,14.40
2018,08,04,05,25,14.30
2018,08,04,05,26,14.40
2018,08,04,05,27,14.40
2018,08,04,05,28,14.30
2018,08,04,05,29,14.30
2018,08,04,05,30,14.30
2018,08,04,05,31,14.30
2018,08,04,05,32,14.30
2018,08,04,05,33,14.30
2018,08,04,05,34,14.30
2018,08,04,05,35,14.30
2018,08,04,05,36,14.30
2018,08,04,05,37,14.20
2018,08,04,05,38,14.20
2018,08,04,05,39,14.20
2018,08,04,05,40,14.20
2018,08,04,05,41,14.20
2018,08,04,05,42,14.20
2018,08,04,05,43,14.20
2018,08,04,05,44,14.20
2018,08,04,05,45,14.20
2018,08,04,05,46,14.20
2018,08,04,05,47,14.20
2018,08,04,05,48,14.20
2018,08,04,05,49,14.20
2018,08,04,05,50,14.30
2018,08,04,05,51,14.30
2018,08,04,05,52,14.30
2018,08,04,05,53,14.20
2018,08,04,05,54,14.30
2018,08,04,05,55,14.20
2018,08,04,05,56,14.20
2018,08,04,05,57,14.20
2018,08,04,05,58,14.20
2018,08,04,05,59,14.20
2018,08,04,06,00,14.20
2018,08,04,06,01,14.20
2018,08,04,06,02,14.20
2018,08,04,06,03,14.20
2018,08,04,06,04,14.20
2018,08,04,06,05,14.20
2018,08,04,06,06,14.20
2018,08,04,06,07,14.20
2018,08,04,06,08,14.20
2018,08,04,06,09,14.20
2018,08,04,06,10,14.20
2018,08,04,06,11,14.20
2018,08,04,06,12,14.20
2018,08,04,06,13,14.20
2018,08,04,06,14,14.20
2018,08,04,06,15,14.20
2018,08,04,06,16,14.20
2018,08,04,06,17,14.20
2018,08,04,06,18,14.30
2018,08,04,06,19,14.30
2018,08,04,06,20,14.30
2018,08,04,06,21,14.30
2018,08,04,06,22,14.30
2018,08,04,06,23,14.30
2018,08,04,06,24,14.30
2018,08,04,06,25,14.30
2018,08,04,06,26,14.30
2018,08,04,06,27,14.30
2018,08,04,06,28,14.40
2018,08,04,06,29,14.40
2018,08,04,06,30,14.40
2018,08,04,06,31,14.40
2018,08,04,06,32,14.40
2018,08,04,06,33,14.50
2018,08,04,06,34,14.50
2018,08,04,06,35,14.50
2018,08,04,06,36,14.50
2018,08,04,06,37,14.50
2018,08,04,06,38,14.60
2018,08,04,06,39,14.60
2018,08,04,06,40,14.60
2018,08,04,06,41,14.70
2018,08,04,06,42,14.70
2018,08,04,06,43,14.70
2018,08,04,06,44,14.70
2018,08,04,06,45,14.70
2018,08,04,06,46,14.80
2018,08,04,06,47,14.80
2018,08,04,06,48,14.80
2018,08,04,06,49,14.90
2018,08,04,06,50,14.90
2018,08,04,06,51,14.90
2018,08,04,06,52,15.00
2018,08,04,06,53,15.00
2018,08,04,06,54,15.10
2018,08,04,06,55,15.10
2018,08,04,06,56,15.10
2018,08,04,06,57,15.20
2018,08,04,06,58,15.20
2018,08,04,06,59,15.30
2018,08,04,07,00,15.30
2018,08,04,07,01,15.30
2018,08,04,07,02,15.30
2018,08,04,07,03,15.40
2018,08,04,07,04,15.40
2018,08,04,07,05,15.50
2018,08,04,07,06,15.50
2018,08,04,07,07,15.60
2018,08,04,07,08,15.60
2018,08,04,07,09,15.60
2018,08,04,07,10,15.70
2018,08,04,07,11,15.70
2018,08,04,07,12,15.70
2018,08,04,07,13,15.80
2018,08,04,07,14,15.80
2018,08,04,07,15,15.90
2018,08,04,07,16,15.90
2018,08,04,07,17,16.00
2018,08,04,07,18,16.10
2018,08,04,07,19,16.20
2018,08,04,07,20,16.30
2018,08,04,07,21,16.30
2018,08,04,07,22,16.40
2018,08,04,07,23,16.50
2018,08,04,07,24,16.50
2018,08,04,07,25,16.60
2018,08,04,07,26,16.70
2018,08,04,07,27,16.80
2018,08,04,07,28,16.90
2018,08,04,07,29,17.00
2018,08,04,07,30,17.10
2018,08,04,07,31,17.20
2018,08,04,07,32,17.30
2018,08,04,07,33,17.40
2018,08,04,07,34,17.50
2018,08,04,07,35,17.60
2018,08,04,07,36,17.70
2018,08,04,07,37,17.80
2018,08,04,07,38,17.90
2018,08,04,07,39,17.90
2018,08,04,07,40,18.00
2018,08,04,07,41,18.10
2018,08,04,07,42,18.10
2018,08,04,07,43,18.10
2018,08,04,07,44,18.10
2018,08,04,07,45,18.10
2018,08,04,07,46,18.10
2018,08,04,07,47,18.10
2018,08,04,07,48,18.20
2018,08,04,07,49,18.20
2018,08,04,07,50,18.20
2018,08,04,07,51,18.20
2018,08,04,07,52,18.10
2018,08,04,07,53,18.10
2018,08,04,07,54,18.10
2018,08,04,07,55,18.10
2018,08,04,07,56,18.10
2018,08,04,07,57,18.10
2018,08,04,07,58,18.10
2018,08,04,07,59,18.10
2018,08,04,08,00,18.10
2018,08,04,08,01,18.10
2018,08,04,08,02,18.10
2018,08,04,08,03,18.10
2018,08,04,08,04,18.20
2018,08,04,08,05,18.20
2018,08,04,08,06,18.30
2018,08,04,08,07,18.30
2018,08,04,08,08,18.40
2018,08,04,08,09,18.40
2018,08,04,08,10,18.30
2018,08,04,08,11,18.30
2018,08,04,08,12,18.30
2018,08,04,08,13,18.30
2018,08,04,08,14,18.30
2018,08,04,08,15,18.30
2018,08,04,08,16,18.40
2018,08,04,08,17,18.40
2018,08,04,08,18,18.40
2018,08,04,08,19,18.40
2018,08,04,08,20,18.40
2018,08,04,08,21,18.40
2018,08,04,08,22,18.40
2018,08,04,08,23,18.40
2018,08,04,08,24,18.50
2018,08,04,08,25,18.50
2018,08,04,08,26,18.40
2018,08,04,08,27,18.40
2018,08,04,08,28,18.40
2018,08,04,08,29,18.40
2018,08,04,08,30,18.50
2018,08,04,08,31,18.50
2018,08,04,08,32,18.60
2018,08,04,08,33,18.60
2018,08,04,08,34,18.60
2018,08,04,08,35,18.70
2018,08,04,08,36,18.70
2018,08,04,08,37,18.70
2018,08,04,08,38,18.80
2018,08,04,08,39,18.80
2018,08,04,08,40,18.80
2018,08,04,08,41,18.90
2018,08,04,08,42,19.00
2018,08,04,08,43,19.00
2018,08,04,08,44,19.10
2018,08,04,08,45,19.20
2018,08,04,08,46,19.30
2018,08,04,08,47,19.30
2018,08,04,08,48,19.40
2018,08,04,08,49,19.30
2018,08,04,08,50,19.20
2018,08,04,08,51,19.10
2018,08,04,08,52,19.10
2018,08,04,08,53,19.00
2018,08,04,08,54,19.00
2018,08,04,08,55,19.00
2018,08,04,08,56,19.10
2018,08,04,08,57,19.10
2018,08,04,08,58,19.10
2018,08,04,08,59,19.10
2018,08,04,09,00,19.10
2018,08,04,09,01,19.10
2018,08,04,09,02,19.10
2018,08,04,09,03,19.00
2018,08,04,09,04,19.00
2018,08,04,09,05,19.00
2018,08,04,09,06,19.00
2018,08,04,09,07,19.00
2018,08,04,09,08,19.10
2018,08,04,09,09,19.00
2018,08,04,09,10,19.10
2018,08,04,09,11,19.10
2018,08,04,09,12,19.10
2018,08,04,09,13,19.10
2018,08,04,09,14,19.10
2018,08,04,09,15,19.10
2018,08,04,09,16,19.10
2018,08,04,09,17,19.10
2018,08,04,09,18,19.10
2018,08,04,09,19,19.20
2018,08,04,09,20,19.20
2018,08,04,09,21,19.20
2018,08,04,09,22,19.20
2018,08,04,09,23,19.20
2018,08,04,09,24,19.20
2018,08,04,09,25,19.10
2018,08,04,09,26,19.10
2018,08,04,09,27,19.00
2018,08,04,09,28,19.10
2018,08,04,09,29,19.10
2018,08,04,09,30,19.10
2018,08,04,09,31,19.10
2018,08,04,09,32,19.20
2018,08,04,09,33,19.20
2018,08,04,09,34,19.20
2018,08,04,09,35,19.30
2018,08,04,09,36,19.30
2018,08,04,09,37,19.30
2018,08,04,09,38,19.40
2018,08,04,09,39,19.40
2018,08,04,09,40,19.40
2018,08,04,09,41,19.40
2018,08,04,09,42,19.40
2018,08,04,09,43,19.40
2018,08,04,09,44,19.50
2018,08,04,09,45,19.50
2018,08,04,09,46,19.50
2018,08,04,09,47,19.50
2018,08,04,09,48,19.50
2018,08,04,09,49,19.40
2018,08,04,09,50,19.40
2018,08,04,09,51,19.40
2018,08,04,09,52,19.30
2018,08,04,09,53,19.30
2018,08,04,09,54,19.30
2018,08,04,09,55,19.40
2018,08,04,09,56,19.50
2018,08,04,09,57,19.60
2018,08,04,09,58,19.60
2018,08,04,09,59,19.60
2018,08,04,10,00,19.60
2018,08,04,10,01,19.70
2018,08,04,10,02,19.70
2018,08,04,10,03,19.70
2018,08,04,10,04,19.70
2018,08,04,10,05,19.70
2018,08,04,10,06,19.80
2018,08,04,10,07,19.90
2018,08,04,10,08,20.00
2018,08,04,10,09,19.90
2018,08,04,10,10,19.90
2018,08,04,10,11,19.90
2018,08,04,10,12,19.90
2018,08,04,10,13,20.00
2018,08,04,10,14,20.10
2018,08,04,10,15,20.20
2018,08,04,10,16,20.40
2018,08,04,10,17,20.40
2018,08,04,10,18,20.50
2018,08,04,10,19,20.50
2018,08,04,10,20,20.60
2018,08,04,10,21,20.70
2018,08,04,10,22,20.70
2018,08,04,10,23,20.70
2018,08,04,10,24,20.80
2018,08,04,10,25,20.70
2018,08,04,10,26,20.70
2018,08,04,10,27,20.60
2018,08,04,10,28,20.50
2018,08,04,10,29,20.50
2018,08,04,10,30,20.40
2018,08,04,10,31,20.50
2018,08,04,10,32,20.60
2018,08,04,10,33,20.70
2018,08,04,10,34,20.80
2018,08,04,10,35,20.80
2018,08,04,10,36,20.70
2018,08,04,10,37,20.70
2018,08,04,10,38,20.60
2018,08,04,10,39,20.50
2018,08,04,10,40,20.50
2018,08,04,10,41,20.50
2018,08,04,10,42,20.50
2018,08,04,10,43,20.50
2018,08,04,10,44,20.60
2018,08,04,10,45,20.70
2018,08,04,10,46,20.80
2018,08,04,10,47,20.90
2018,08,04,10,48,20.90
2018,08,04,10,49,21.00
2018,08,04,10,50,21.00
2018,08,04,10,51,21.10
2018,08,04,10,52,21.00
2018,08,04,10,53,21.00
2018,08,04,10,54,21.00
2018,08,04,10,55,21.00
2018,08,04,10,56,21.00
2018,08,04,10,57,21.10
2018,08,04,10,58,21.10
2018,08,04,10,59,21.10
2018,08,04,11,00,21.00
2018,08,04,11,01,20.90
2018,08,04,11,02,20.80
2018,08,04,11,03,20.70
2018,08,04,11,04,20.60
2018,08,04,11,05,20.60
2018,08,04,11,06,20.60
2018,08,04,11,07,20.70
2018,08,04,11,08,20.60
2018,08,04,11,09,20.50
2018,08,04,11,10,20.50
2018,08,04,11,11,20.50
2018,08,04,11,12,20.60
2018,08,04,11,13,20.70
2018,08,04,11,14,20.70
2018,08,04,11,15,20.70
2018,08,04,11,16,20.70
2018,08,04,11,17,20.70
2018,08,04,11,18,20.80
2018,08,04,11,19,20.90
2018,08,04,11,20,21.00
2018,08,04,11,21,21.00
2018,08,04,11,22,21.00
2018,08,04,11,23,21.00
2018,08,04,11,24,21.00
2018,08,04,11,25,21.10
2018,08,04,11,26,21.10
2018,08,04,11,27,21.10
2018,08,04,11,28,21.00
2018,08,04,11,29,21.00
2018,08,04,11,30,21.00
2018,08,04,11,31,21.10
2018,08,04,11,32,21.20
2018,08,04,11,33,21.30
2018,08,04,11,34,21.40
2018,08,04,11,35,21.40
2018,08,04,11,36,21.50
2018,08,04,11,37,21.40
2018,08,04,11,38,21.40
2018,08,04,11,39,21.40
2018,08,04,11,40,21.30
2018,08,04,11,41,21.30
2018,08,04,11,42,21.20
2018,08,04,11,43,21.20
2018,08,04,11,44,21.30
2018,08,04,11,45,21.40
2018,08,04,11,46,21.50
2018,08,04,11,47,21.50
2018,08,04,11,48,21.60
2018,08,04,11,49,21.70
2018,08,04,11,50,21.70
2018,08,04,11,51,21.60
2018,08,04,11,52,21.50
2018,08,04,11,53,21.40
2018,08,04,11,54,21.30
2018,08,04,11,55,21.20
2018,08,04,11,56,21.10
2018,08,04,11,57,21.10
2018,08,04,11,58,21.00
2018,08,04,11,59,21.00
2018,08,04,12,00,20.90
2018,08,04,12,01,20.90
2018,08,04,12,02,20.90
2018,08,04,12,03,20.90
2018,08,04,12,04,20.90
2018,08,04,12,05,20.90
2018,08,04,12,06,20.90
2018,08,04,12,07,20.90
2018,08,04,12,08,20.90
2018,08,04,12,09,21.00
2018,08,04,12,10,21.00
2018,08,04,12,11,21.00
2018,08,04,12,12,21.00
2018,08,04,12,13,21.00
2018,08,04,12,14,21.00
2018,08,04,12,15,21.00
2018,08,04,12,16,21.00
2018,08,04,12,17,20.90
2018,08,04,12,18,20.90
2018,08,04,12,19,20.90
2018,08,04,12,20,20.80
2018,08,04,12,21,20.90
2018,08,04,12,22,20.90
2018,08,04,12,23,20.90
2018,08,04,12,24,20.90
2018,08,04,12,25,20.90
2018,08,04,12,26,20.80
2018,08,04,12,27,20.90
2018,08,04,12,28,21.00
2018,08,04,12,29,21.10
2018,08,04,12,30,21.20
2018,08,04,12,31,21.20
2018,08,04,12,32,21.30
2018,08,04,12,33,21.30
2018,08,04,12,34,21.30
2018,08,04,12,35,21.40
2018,08,04,12,36,21.40
2018,08,04,12,37,21.40
2018,08,04,12,38,21.40
2018,08,04,12,39,21.40
2018,08,04,12,40,21.40
2018,08,04,12,41,21.40
2018,08,04,12,42,21.40
2018,08,04,12,43,21.40
2018,08,04,12,44,21.40
2018,08,04,12,45,21.40
2018,08,04,12,46,21.50
2018,08,04,12,47,21.60
2018,08,04,12,48,21.70
2018,08,04,12,49,21.80
2018,08,04,12,50,21.80
2018,08,04,12,51,21.80
2018,08,04,12,52,21.80
2018,08,04,12,53,21.80
2018,08,04,12,54,21.80
2018,08,04,12,55,21.80
2018,08,04,12,56,21.70
2018,08,04,12,57,21.70
2018,08,04,12,58,21.70
2018,08,04,12,59,21.80
2018,08,04,13,00,21.80
2018,08,04,13,01,21.80
2018,08,04,13,02,21.90
2018,08,04,13,03,21.90
2018,08,04,13,04,21.90
2018,08,04,13,05,22.00
2018,08,04,13,06,22.00
2018,08,04,13,07,22.00
2018,08,04,13,08,22.10
2018,08,04,13,09,22.10
2018,08,04,13,10,22.10
2018,08,04,13,11,22.20
2018,08,04,13,12,22.20
2018,08,04,13,13,22.20
2018,08,04,13,14,22.20
2018,08,04,13,15,22.20
2018,08,04,13,16,22.30
2018,08,04,13,17,22.40
2018,08,04,13,18,22.40
2018,08,04,13,19,22.40
2018,08,04,13,20,22.50
2018,08,04,13,21,22.60
2018,08,04,13,22,22.60
2018,08,04,13,23,22.60
2018,08,04,13,24,22.60
2018,08,04,13,25,22.60
2018,08,04,13,26,22.60
2018,08,04,13,27,22.70
2018,08,04,13,28,22.70
2018,08,04,13,29,22.70
2018,08,04,13,30,22.70
2018,08,04,13,31,22.80
2018,08,04,13,32,22.80
2018,08,04,13,33,22.90
2018,08,04,13,34,23.00
2018,08,04,13,35,23.00
2018,08,04,13,36,23.00
2018,08,04,13,37,23.00
2018,08,04,13,38,22.90
2018,08,04,13,39,22.80
2018,08,04,13,40,22.80
2018,08,04,13,41,22.80
2018,08,04,13,42,22.80
2018,08,04,13,43,22.70
2018,08,04,13,44,22.70
2018,08,04,13,45,22.80
2018,08,04,13,46,22.80
2018,08,04,13,47,23.00
2018,08,04,13,48,23.10
2018,08,04,13,49,23.10
2018,08,04,13,50,23.10
2018,08,04,13,51,23.10
2018,08,04,13,52,23.10
2018,08,04,13,53,23.10
2018,08,04,13,54,23.00
2018,08,04,13,55,22.90
2018,08,04,13,56,22.90
2018,08,04,13,57,22.90
2018,08,04,13,58,22.90
2018,08,04,13,59,22.80
2018,08,04,14,00,22.80
2018,08,04,14,01,22.80
2018,08,04,14,02,22.90
2018,08,04,14,03,23.00
2018,08,04,14,04,23.10
2018,08,04,14,05,23.10
2018,08,04,14,06,23.20
2018,08,04,14,07,23.20
2018,08,04,14,08,23.30
2018,08,04,14,09,23.40
2018,08,04,14,10,23.40
2018,08,04,14,11,23.60
2018,08,04,14,12,23.70
2018,08,04,14,13,23.80
2018,08,04,14,14,23.80
2018,08,04,14,15,23.80
2018,08,04,14,16,23.90
2018,08,04,14,17,23.90
2018,08,04,14,18,23.80
2018,08,04,14,19,23.70
2018,08,04,14,20,23.60
2018,08,04,14,21,23.60
2018,08,04,14,22,23.50
2018,08,04,14,23,23.50
2018,08,04,14,24,23.60
2018,08,04,14,25,23.60
2018,08,04,14,26,23.70
2018,08,04,14,27,23.70
2018,08,04,14,28,23.80
2018,08,04,14,29,23.80
2018,08,04,14,30,23.90
2018,08,04,14,31,23.90
2018,08,04,14,32,23.90
2018,08,04,14,33,23.90
2018,08,04,14,34,23.80
2018,08,04,14,35,23.80
2018,08,04,14,36,23.80
2018,08,04,14,37,23.90
2018,08,04,14,38,24.00
2018,08,04,14,39,24.10
2018,08,04,14,40,24.20
2018,08,04,14,41,24.30
2018,08,04,14,42,24.40
2018,08,04,14,43,24.40
2018,08,04,14,44,24.50
2018,08,04,14,45,24.50
2018,08,04,14,46,24.50
2018,08,04,14,47,24.40
2018,08,04,14,48,24.30
2018,08,04,14,49,24.20
2018,08,04,14,50,24.20
2018,08,04,14,51,24.20
2018,08,04,14,52,24.20
2018,08,04,14,53,24.30
2018,08,04,14,54,24.50
2018,08,04,14,55,24.50
2018,08,04,14,56,24.50
2018,08,04,14,57,24.60
2018,08,04,14,58,24.60
2018,08,04,14,59,24.50
2018,08,04,15,00,24.50
2018,08,04,15,01,24.50
2018,08,04,15,02,24.50
2018,08,04,15,03,24.50
2018,08,04,15,04,24.50
2018,08,04,15,05,24.40
2018,08,04,15,06,24.50
2018,08,04,15,07,24.40
2018,08,04,15,08,24.50
2018,08,04,15,09,24.50
2018,08,04,15,10,24.50
2018,08,04,15,11,24.50
2018,08,04,15,12,24.40
2018,08,04,15,13,24.40
2018,08,04,15,14,24.40
2018,08,04,15,15,24.40
2018,08,04,15,16,24.30
2018,08,04,15,17,24.30
2018,08,04,15,18,24.30
2018,08,04,15,19,24.20
2018,08,04,15,20,24.20
2018,08,04,15,21,24.20
2018,08,04,15,22,24.20
2018,08,04,15,23,24.20
2018,08,04,15,24,24.20
2018,08,04,15,25,24.30
2018,08,04,15,26,24.20
2018,08,04,15,27,24.30
2018,08,04,15,28,24.30
2018,08,04,15,29,24.30
2018,08,04,15,30,24.40
2018,08,04,15,31,24.40
2018,08,04,15,32,24.50
2018,08,04,15,33,24.50
2018,08,04,15,34,24.50
2018,08,04,15,35,24.50
2018,08,04,15,36,24.50
2018,08,04,15,37,24.50
2018,08,04,15,38,24.60
2018,08,04,15,39,24.60
2018,08,04,15,40,24.60
2018,08,04,15,41,24.60
2018,08,04,15,42,24.60
2018,08,04,15,43,24.70
2018,08,04,15,44,24.80
2018,08,04,15,45,24.90
2018,08,04,15,46,24.90
2018,08,04,15,47,24.90
2018,08,04,15,48,24.90
2018,08,04,15,49,24.80
2018,08,04,15,50,24.80
2018,08,04,15,51,24.80
2018,08,04,15,52,24.80
2018,08,04,15,53,24.80
2018,08,04,15,54,24.80
2018,08,04,15,55,24.80
2018,08,04,15,56,24.80
2018,08,04,15,57,24.90
2018,08,04,15,58,25.00
2018,08,04,15,59,25.10
2018,08,04,16,00,25.20
2018,08,04,16,01,25.20
2018,08,04,16,02,25.30
2018,08,04,16,03,25.30
2018,08,04,16,04,25.20
2018,08,04,16,05,25.20
2018,08,04,16,06,25.10
2018,08,04,16,07,25.10
2018,08,04,16,08,25.00
2018,08,04,16,09,24.90
2018,08,04,16,10,24.90
2018,08,04,16,11,24.90
2018,08,04,16,12,25.00
2018,08,04,16,13,25.00
2018,08,04,16,14,25.00
2018,08,04,16,15,24.90
2018,08,04,16,16,25.00
2018,08,04,16,17,25.10
2018,08,04,16,18,25.10
2018,08,04,16,19,25.10
2018,08,04,16,20,25.10
2018,08,04,16,21,25.20
2018,08,04,16,22,25.20
2018,08,04,16,23,25.20
2018,08,04,16,24,25.30
2018,08,04,16,25,25.40
2018,08,04,16,26,25.40
2018,08,04,16,27,25.40
2018,08,04,16,28,25.40
2018,08,04,16,29,25.30
2018,08,04,16,30,25.30
2018,08,04,16,31,25.20
2018,08,04,16,32,25.20
2018,08,04,16,33,25.20
2018,08,04,16,34,25.20
2018,08,04,16,35,25.30
2018,08,04,16,36,25.30
2018,08,04,16,37,25.40
2018,08,04,16,38,25.50
2018,08,04,16,39,25.60
2018,08,04,16,40,25.70
2018,08,04,16,41,25.80
2018,08,04,16,42,25.90
2018,08,04,16,43,26.00
2018,08,04,16,44,26.20
2018,08,04,16,45,26.30
2018,08,04,16,46,26.30
2018,08,04,16,47,26.30
2018,08,04,16,48,26.40
2018,08,04,16,49,26.40
2018,08,04,16,50,26.40
2018,08,04,16,51,26.40
2018,08,04,16,52,26.40
2018,08,04,16,53,26.40
2018,08,04,16,54,26.30
2018,08,04,16,55,26.30
2018,08,04,16,56,26.20
2018,08,04,16,57,26.10
2018,08,04,16,58,26.00
2018,08,04,16,59,25.90
2018,08,04,17,00,26.00
2018,08,04,17,01,26.10
2018,08,04,17,02,26.20
2018,08,04,17,03,26.40
2018,08,04,17,04,26.40
2018,08,04,17,05,26.50
2018,08,04,17,06,26.40
2018,08,04,17,07,26.40
2018,08,04,17,08,26.40
2018,08,04,17,09,26.40
2018,08,04,17,10,26.40
2018,08,04,17,11,26.40
2018,08,04,17,12,26.40
2018,08,04,17,13,26.40
2018,08,04,17,14,26.50
2018,08,04,17,15,26.50
2018,08,04,17,16,26.50
2018,08,04,17,17,26.50
2018,08,04,17,18,26.50
2018,08,04,17,19,26.40